Weather History for Vicksburg, MS

Change the Weather History Date:

Thursday, March 21, 2013

  Actual Average Record
Temperature  
Mean Temperature 47 °F 58 °F  
Max Temperature 58 °F 70 °F 88 °F (1982)
Min Temperature 36 °F 47 °F 22 °F (1965)
Degree Days  
Heating Degree Days 18 7  
Month to date heating degree days 264 201  
Since 1 July heating degree days 2034 2177  
Cooling Degree Days 0 1  
Month to date cooling degree days 7 18  
Year to date cooling degree days 25 27  
Moisture  
Dew Point 26 °F    
Average Humidity 60    
Maximum Humidity 92    
Minimum Humidity 27    
Precipitation  
Precipitation 0.00 in 0.14 in 2.19 in (1955)
Month to date precipitation 1.58 3.46  
Year to date precipitation 24.41 13.80  
Sea Level Pressure  
Sea Level Pressure 30.01 in    
Wind  
Wind Speed 10 mph (East)    
Max Wind Speed 15 mph    
Max Gust Speed 26 mph    
Visibility 10 miles    
Events      
T = Trace of Precipitation, MM = Missing Value Source: NWS Daily Summary

Daily Weather History Graph

Daily Weather History Graph

Search for Another Location

Airport:

Trip Planner

Search our weather history database for the weather conditions in past years. The results will help you decide how hot, cold, wet, or windy it might be!

Date:

Astronomy

Mar. 21, 2013 Rise Set
Actual Time 7:06 AM CDT 7:16 PM CDT
Civil Twilight 6:41 AM CDT 7:41 PM CDT
Nautical Twilight 6:13 AM CDT 8:09 PM CDT
Astronomical Twilight 5:44 AM CDT 8:38 PM CDT
Moon 2:02 PM CDT (3/21) 3:11 AM CDT (3/21)
Length of Visible Light 12h 59m
Length of Day
12h 10m
Waxing Gibbous, 69% of the Moon is Illuminated
Mar 21
Waxing Gibbous
Mar 27
Full
Apr 2
Last Quarter
Apr 10
New
Apr 18
First Quarter

Hourly Weather History & Observations

Time (CDT) Temp. Windchill Dew Point Humidity Pressure Visibility Wind Dir Wind Speed Gust Speed Precip Events Conditions
1:53 AM 37.9 °F 35.5 °F 35.1 °F 89% 30.10 in 10.0 mi North 3.5 mph - N/A   Clear
2:53 AM 39.9 °F 36.7 °F 34.0 °F 79% 30.09 in 10.0 mi NE 4.6 mph - N/A   Clear
3:53 AM 46.0 °F 40.2 °F 28.9 °F 51% 30.10 in 10.0 mi NE 12.7 mph - N/A   Clear
4:53 AM 45.0 °F 39.7 °F 27.0 °F 49% 30.10 in 10.0 mi NNE 10.4 mph - N/A   Clear
5:53 AM 45.0 °F 38.5 °F 21.0 °F 39% 30.10 in 10.0 mi NNE 13.8 mph - N/A   Clear
6:53 AM 45.0 °F 40.6 °F 17.1 °F 33% 30.10 in 10.0 mi NE 8.1 mph - N/A   Clear
7:53 AM 44.1 °F 39.5 °F 21.9 °F 42% 30.12 in 10.0 mi ENE 8.1 mph - N/A   Clear
8:53 AM 45.0 °F 40.1 °F 19.9 °F 37% 30.12 in 10.0 mi ENE 9.2 mph - N/A   Clear
9:53 AM 46.9 °F - 19.0 °F 33% 30.11 in 10.0 mi ESE 10.4 mph - N/A   Clear
10:53 AM 48.0 °F - 18.0 °F 30% 30.12 in 10.0 mi ESE 6.9 mph - N/A   Clear
11:53 AM 51.1 °F - 21.0 °F 31% 30.09 in 10.0 mi East 9.2 mph - N/A   Clear
12:53 PM 55.0 °F - 23.0 °F 29% 30.05 in 10.0 mi East 8.1 mph - N/A   Clear
1:53 PM 57.0 °F - 25.0 °F 29% 29.99 in 10.0 mi East 11.5 mph - N/A   Clear
2:53 PM 57.0 °F - 27.0 °F 32% 29.96 in 10.0 mi ENE 6.9 mph - N/A   Overcast
3:53 PM 57.0 °F - 26.1 °F 30% 29.96 in 10.0 mi South 4.6 mph - N/A   Overcast
4:53 PM 57.9 °F - 27.0 °F 31% 29.91 in 10.0 mi East 9.2 mph - N/A   Overcast
5:53 PM 57.0 °F - 28.0 °F 33% 29.91 in 10.0 mi East 10.4 mph - N/A   Mostly Cloudy
6:53 PM 55.9 °F - 30.0 °F 37% 29.87 in 10.0 mi East 12.7 mph - N/A   Mostly Cloudy
7:53 PM 55.9 °F - 30.0 °F 37% 29.89 in 10.0 mi ESE 11.5 mph - N/A   Overcast
8:53 PM 55.9 °F - 30.0 °F 37% 29.88 in 10.0 mi ESE 11.5 mph - N/A   Overcast
9:53 PM 55.9 °F - 30.0 °F 37% 29.89 in 10.0 mi SE 11.5 mph - N/A   Overcast
10:53 PM 55.9 °F - 30.0 °F 37% 29.89 in 10.0 mi SE 12.7 mph - N/A   Overcast
11:53 PM 55.9 °F - 30.9 °F 39% 29.90 in 10.0 mi SE 9.2 mph - N/A   Overcast